Вернуться в каталог

STARLINK-5670

АктивенСвязьVLEO
NORAD 55341·PAYLOAD·🇺🇸 United States

Запущен Jan 26, 2023 с Cape Canaveral Space Force Station

Loading…

Ближайшие Пролёты (ближайшие 24 часа)

TLE

СвежийSource: CelesTrak SupGP

Эпоха: Sep 15, 2026, 02:04 UTC

1 55341C 23013L   26258.08659722  .00032185  00000+0  11659-2 0  2589
2 55341  43.0030 314.1165 0001634 281.2072 145.2358 15.27557211    12

Отслеживайте STARLINK-5670 в реальном времени с AllMySat

Download on the App Store